Weather in Pavlogradka

Russia / Omsk Oblast     54°12′12″N   73°33′48″E
temp.,
°C
wind,
m/s
gust,
m/s
humid.,
%
clouds,
%
prec.,
mm/h
press.,
hPa
HPBL,
m
27 october, wed
wed2700:00−1wnw510640 0.0 1023600
03:00−2w48671 0.0 1025368
06:00−2wsw377176 0.0 1026244
09:00−2sw48675 0.0 1027407
12:00+1wsw684711 0.0 1027849
15:00+3wsw68426 0.0 1025997
18:00+1sw485161 0.0 1025161
21:000ssw495413 0.0 1025176
28 october, thu
thu2800:00−1sw48585 0.0 1025164
03:00−1ssw49575 0.0 1024186
06:00−1ssw511545 0.0 1023212
09:00−1ssw6125151 0.0 1022306
12:00+3ssw81337100 0.0 1021623
15:00+5sw81335100 0.0 1019801
18:00+5sw81637100 0.0 1017582
21:00+4sw81639100 0.0 1017556
29 october, fri
fri2900:00+3sw81641100 0.0 1016581
03:00+2sw7154594 0.0 1016479
06:00+2sw7144899 0.0 1016469
09:00+1sw7145392 0.0 1017475
12:00+4sw8135080 0.0 1016802
15:00+6wsw8125083 0.0 10161040
18:00+5wsw81455100 0.0 1016916
21:00+4wsw81468100 0.0 10171019
30 october, sat
sat3000:00+1wnw71370100 0.5 10191074
03:00−3wnw812595 0.0 10231141
06:00−4wnw812595 0.0 10261049
09:00−4wnw710605 0.0 10291038
12:00−2w794734 0.0 10311135
15:00−1w6842100 0.0 10311054
18:00−2wsw5946100 0.0 1031770
21:00−2sw51147100 0.0 1029510
31 october, sun
sun3100:00−1ssw61245100 0.0 1026489
03:00−1sw61142100 0.1 1023481
06:00−1wsw61045100 0.1 1020663
09:00−2wsw4995100 1.3 1019502
12:000nw5780100 1.9 1020838
15:00−1nw5878100 0.1 10221042
18:00−1nw5881100 0.1 1026720
21:00−2nw368297 0.1 1029423